contact:dominique.lefevre@mio.osupytheas.fr, maurice.libes@osupytheas.fr, didier.mallarino@osupytheas.fr
Project:EMSO http://www.emso-fr.org/EMSO-France
Depth: 2436.0 m
Title:EMSO Ligure Ouest : Data MII capteur AQUADOPP
Date,Latitude,Longitude,X_East,Y_North,Z_Up,Amplitude_X,Amplitude_Y,Amplitude_Z,Batterie,SoundSpeed,Heading,Pitch,Roll,Pressure,TIS,Speed,Direction
, degrees North, degrees East, m.s-1, m.s-1,m.s-1, 1, 1, 1, Volt, m.s-1, degree, degree, degree, dbar, degree_C, m.s-1, degree
2019-09-01T00:04:04,42.805,6.029,0.002,0.014,-0.002,102.0,109.0,98.0,13.4,1505.3,323.0,-0.7,1.9,2470.074,13.32,0.014,8.1
2019-09-01T00:07:05,42.805,6.029,0.018,0.025,-0.024,102.0,108.0,99.0,13.4,1505.3,327.9,-0.8,1.9,2470.041,13.33,0.03,35.8
2019-09-01T00:10:06,42.805,6.029,-0.012,0.012,-0.038,103.0,108.0,99.0,13.3,1505.3,326.5,-0.7,1.8,2470.068,13.33,0.016,315.0
2019-09-01T00:13:07,42.805,6.029,-0.007,-0.012,-0.032,101.0,109.0,99.0,13.4,1505.3,325.5,-0.7,1.8,2470.084,13.33,0.013,210.3
2019-09-01T00:16:08,42.805,6.029,0.002,0.015,-0.046,102.0,110.0,97.0,13.4,1505.3,324.5,-0.7,1.8,2470.102,13.33,0.015,7.6
2019-09-01T00:19:09,42.805,6.029,0.03,0.006,-0.005,100.0,108.0,99.0,13.4,1505.3,324.5,-0.7,1.8,2470.039,13.33,0.03,78.7
2019-09-01T00:22:10,42.805,6.029,0.0,0.021,0.013,102.0,109.0,98.0,13.4,1505.3,323.5,-0.7,1.8,2470.052,13.33,0.021,0.0
2019-09-01T00:25:11,42.805,6.029,-0.007,0.006,-0.027,103.0,109.0,98.0,13.4,1505.3,323.7,-0.7,1.8,2470.022,13.33,0.009,310.6
2019-09-01T00:28:12,42.805,6.029,-0.003,0.03,-0.034,102.0,110.0,97.0,13.4,1505.3,323.4,-0.7,1.8,2470.045,13.33,0.03,354.3
2019-09-01T00:31:13,42.805,6.029,0.001,0.019,-0.027,102.0,108.0,97.0,13.4,1505.3,324.6,-0.7,1.8,2470.067,13.33,0.019,3.0
2019-09-01T00:34:14,42.805,6.029,0.011,0.006,-0.007,103.0,109.0,98.0,13.3,1505.3,323.5,-0.8,1.8,2470.042,13.33,0.012,61.4
2019-09-01T00:37:15,42.805,6.029,0.001,-0.008,-0.046,104.0,108.0,97.0,13.3,1505.3,326.9,-0.7,1.8,2470.009,13.33,0.008,172.9
2019-09-01T00:40:16,42.805,6.029,-0.014,0.006,-0.042,100.0,108.0,99.0,13.3,1505.3,326.8,-0.7,1.9,2470.049,13.33,0.015,293.2
2019-09-01T00:43:17,42.805,6.029,0.0,0.02,0.003,101.0,107.0,99.0,13.3,1505.3,324.6,-0.7,1.8,2470.024,13.33,0.02,0.0
2019-09-01T00:46:18,42.805,6.029,0.004,0.017,0.01,102.0,106.0,99.0,13.4,1505.3,326.0,-0.7,1.8,2470.034,13.33,0.017,13.2
2019-09-01T00:49:19,42.805,6.029,0.012,-0.004,-0.008,101.0,107.0,98.0,13.3,1505.3,323.1,-0.7,1.8,2470.025,13.33,0.012,108.4
2019-09-01T00:52:20,42.805,6.029,0.028,0.028,-0.014,101.0,108.0,97.0,13.4,1505.3,323.3,-0.7,1.8,2470.016,13.33,0.039,45.0
2019-09-01T00:55:21,42.805,6.029,-0.004,0.013,-0.015,100.0,107.0,99.0,13.3,1505.3,323.2,-0.8,1.8,2470.035,13.33,0.013,342.9
2019-09-01T00:58:22,42.805,6.029,0.026,0.007,0.013,103.0,110.0,99.0,13.4,1505.3,326.1,-0.7,1.8,2470.041,13.33,0.026,74.9
2019-09-01T01:01:23,42.805,6.029,0.042,0.011,-0.004,101.0,107.0,98.0,13.4,1505.3,326.6,-0.7,1.8,2470.007,13.33,0.043,75.3
2019-09-01T01:04:24,42.805,6.029,0.0,0.018,-0.001,101.0,107.0,97.0,13.3,1505.3,325.8,-0.7,1.8,2470.117,13.33,0.018,0.0
2019-09-01T01:07:25,42.805,6.029,0.035,0.025,-0.01,102.0,109.0,98.0,13.3,1505.3,327.0,-0.7,1.8,2470.03,13.33,0.043,54.5
2019-09-01T01:10:26,42.805,6.029,-0.031,0.005,-0.05,102.0,109.0,99.0,13.3,1505.3,328.1,-0.8,1.8,2469.98,13.33,0.031,279.2
2019-09-01T01:13:27,42.805,6.029,0.012,-0.001,0.004,101.0,107.0,100.0,13.4,1505.3,328.1,-0.7,1.8,2469.982,13.33,0.012,94.8
2019-09-01T01:16:28,42.805,6.029,-0.026,0.016,-0.005,101.0,108.0,98.0,13.4,1505.3,327.9,-0.8,1.8,2469.979,13.33,0.03,301.6
2019-09-01T01:19:29,42.805,6.029,0.0,0.007,-0.021,101.0,108.0,99.0,13.4,1505.3,328.4,-0.7,1.8,2470.001,13.33,0.007,0.0
2019-09-01T01:22:30,42.805,6.029,-0.008,0.012,-0.026,104.0,107.0,98.0,13.4,1505.3,324.6,-0.7,1.9,2469.99,13.33,0.014,326.3
2019-09-01T01:25:31,42.805,6.029,0.039,0.01,0.011,101.0,107.0,98.0,13.4,1505.3,326.7,-0.7,1.8,2469.974,13.33,0.04,75.6
2019-09-01T01:28:32,42.805,6.029,-0.008,0.005,-0.022,103.0,109.0,98.0,13.3,1505.3,323.5,-0.7,1.8,2470.007,13.33,0.009,302.0
2019-09-01T01:31:33,42.805,6.029,-0.013,0.032,-0.01,102.0,108.0,98.0,13.4,1505.3,328.2,-0.7,1.8,2470.02,13.33,0.034,337.9
2019-09-01T01:34:34,42.805,6.029,0.016,0.004,-0.017,103.0,105.0,99.0,13.4,1505.3,326.9,-0.7,1.8,2469.954,13.33,0.016,76.0
2019-09-01T01:37:35,42.805,6.029,-0.024,0.012,-0.01,101.0,107.0,98.0,13.3,1505.3,326.5,-0.7,1.8,2469.923,13.33,0.026,296.6
2019-09-01T01:40:36,42.805,6.029,-0.004,0.013,-0.018,103.0,107.0,100.0,13.3,1505.3,324.9,-0.7,1.9,2469.96,13.33,0.013,342.9
2019-09-01T01:43:37,42.805,6.029,0.023,0.013,0.053,100.0,111.0,107.0,13.4,1505.3,325.9,-0.7,1.8,2470.02,13.33,0.026,60.5
2019-09-01T01:46:38,42.805,6.029,-0.012,0.012,-0.027,101.0,109.0,99.0,13.4,1505.3,323.0,-0.7,1.8,2469.956,13.33,0.016,315.0
2019-09-01T01:49:39,42.805,6.029,0.045,0.012,0.014,99.0,108.0,99.0,13.3,1505.3,328.5,-0.7,1.8,2469.947,13.33,0.046,75.1
2019-09-01T01:52:40,42.805,6.029,-0.007,0.035,-0.04,102.0,108.0,99.0,13.3,1505.3,327.0,-0.7,1.8,2469.941,13.33,0.035,348.7
2019-09-01T01:55:41,42.805,6.029,0.004,0.0,0.005,101.0,108.0,99.0,13.3,1505.3,323.5,-0.7,1.8,2469.984,13.33,0.004,90.0
2019-09-01T01:58:42,42.805,6.029,0.03,-0.007,-0.055,102.0,106.0,98.0,13.3,1505.3,327.2,-0.7,1.8,2469.973,13.33,0.03,103.1
2019-09-01T02:01:43,42.805,6.029,0.012,-0.007,-0.046,100.0,107.0,98.0,13.4,1505.3,325.5,-0.7,1.8,2469.969,13.33,0.013,120.3
2019-09-01T02:04:44,42.805,6.029,-0.003,-0.001,-0.024,101.0,108.0,99.0,13.3,1505.3,327.8,-0.7,1.8,2469.989,13.33,0.003,251.6
2019-09-01T02:07:45,42.805,6.029,0.001,0.007,-0.048,102.0,108.0,99.0,13.4,1505.3,326.6,-0.7,1.8,2469.989,13.33,0.007,8.1
2019-09-01T02:10:46,42.805,6.029,-0.008,-0.024,-0.051,100.0,109.0,98.0,13.3,1505.3,324.8,-0.7,1.9,2469.939,13.33,0.025,198.4
2019-09-01T02:13:47,42.805,6.029,-0.009,0.008,-0.039,102.0,110.0,100.0,13.3,1505.3,328.6,-0.7,1.8,2469.913,13.33,0.012,311.6
2019-09-01T02:16:48,42.805,6.029,0.003,0.015,-0.025,102.0,108.0,99.0,13.4,1505.3,327.1,-0.7,1.8,2469.94,13.33,0.015,11.3
2019-09-01T02:19:49,42.805,6.029,0.009,-0.02,-0.015,101.0,109.0,97.0,13.3,1505.3,328.1,-0.7,1.9,2469.979,13.33,0.021,155.8
2019-09-01T02:22:50,42.805,6.029,-0.017,0.002,-0.022,101.0,109.0,98.0,13.3,1505.3,324.8,-0.8,1.8,2469.933,13.33,0.017,276.7
2019-09-01T02:25:51,42.805,6.029,-0.016,-0.008,-0.034,100.0,109.0,98.0,13.3,1505.3,324.4,-0.7,1.9,2469.978,13.33,0.017,243.4
2019-09-01T02:28:52,42.805,6.029,0.024,0.001,0.004,102.0,110.0,97.0,13.4,1505.3,324.0,-0.7,1.8,2469.923,13.33,0.024,87.6
2019-09-01T02:31:53,42.805,6.029,0.021,0.032,0.007,101.0,109.0,97.0,13.4,1505.3,325.3,-0.7,1.8,2469.965,13.33,0.038,33.3
2019-09-01T02:34:54,42.805,6.029,-0.002,-0.003,-0.053,103.0,109.0,98.0,13.3,1505.3,324.3,-0.7,1.8,2469.931,13.33,0.003,213.7
2019-09-01T02:37:55,42.805,6.029,-0.023,0.011,-0.002,100.0,111.0,99.0,13.4,1505.3,323.0,-0.7,1.8,2469.943,13.33,0.025,295.6
2019-09-01T02:40:56,42.805,6.029,-0.013,0.01,-0.026,101.0,107.0,98.0,13.4,1505.3,324.6,-0.7,1.8,2469.925,13.33,0.016,307.6
2019-09-01T02:43:57,42.805,6.029,0.013,0.0,-0.03,101.0,108.0,99.0,13.4,1505.3,328.5,-0.7,1.8,2469.92,13.33,0.013,90.0
2019-09-01T02:46:58,42.805,6.029,-0.018,0.017,-0.017,102.0,112.0,101.0,13.3,1505.3,324.5,-0.7,1.9,2469.976,13.33,0.024,313.4
2019-09-01T02:49:59,42.805,6.029,0.011,0.019,-0.029,100.0,108.0,99.0,13.4,1505.3,326.8,-0.7,1.8,2469.954,13.33,0.021,30.1
2019-09-01T02:53:00,42.805,6.029,0.003,0.013,0.004,102.0,109.0,99.0,13.3,1505.3,328.0,-0.7,1.8,2469.91,13.33,0.013,13.0
2019-09-01T02:56:01,42.805,6.029,-0.002,0.008,-0.013,101.0,108.0,99.0,13.3,1505.3,326.2,-0.7,1.8,2469.963,13.33,0.008,346.0
2019-09-01T02:59:02,42.805,6.029,-0.001,0.009,-0.026,100.0,109.0,99.0,13.4,1505.3,326.3,-0.7,1.9,2469.947,13.33,0.009,353.7
2019-09-01T03:02:03,42.805,6.029,-0.004,-0.001,0.002,102.0,108.0,98.0,13.4,1505.3,328.2,-0.7,1.9,2469.901,13.33,0.004,256.0
2019-09-01T03:05:04,42.805,6.029,-0.012,0.015,-0.033,101.0,109.0,98.0,13.4,1505.3,326.4,-0.7,1.9,2469.95,13.33,0.019,321.3
2019-09-01T03:08:05,42.805,6.029,0.006,0.001,-0.007,101.0,108.0,98.0,13.4,1505.3,323.8,-0.7,1.8,2469.94,13.33,0.006,80.5
2019-09-01T03:11:06,42.805,6.029,0.0,0.014,0.001,101.0,108.0,99.0,13.4,1505.3,325.0,-0.7,1.8,2469.921,13.33,0.014,0.0
2019-09-01T03:14:07,42.805,6.029,-0.014,0.029,0.012,101.0,108.0,100.0,13.3,1505.3,327.4,-0.7,1.9,2469.926,13.33,0.032,334.2
2019-09-01T03:17:08,42.805,6.029,-0.034,0.014,-0.033,101.0,109.0,97.0,13.3,1505.3,322.7,-0.7,1.8,2469.925,13.33,0.036,292.4
2019-09-01T03:20:09,42.805,6.029,-0.015,-0.001,-0.022,101.0,109.0,98.0,13.4,1505.3,326.8,-0.7,1.8,2469.923,13.33,0.015,266.2
2019-09-01T03:23:10,42.805,6.029,-0.026,0.022,-0.046,102.0,107.0,99.0,13.3,1505.3,327.4,-0.7,1.8,2469.885,13.33,0.034,310.2
2019-09-01T03:26:11,42.805,6.029,-0.007,0.005,-0.032,102.0,108.0,100.0,13.4,1505.3,323.6,-0.7,1.8,2469.866,13.33,0.008,305.5
2019-09-01T03:29:12,42.805,6.029,0.0,-0.022,-0.026,101.0,108.0,99.0,13.4,1505.3,326.4,-0.7,1.9,2469.9,13.33,0.022,180.0
2019-09-01T03:32:13,42.805,6.029,0.0,0.0,-0.007,101.0,110.0,98.0,13.3,1505.3,326.5,-0.7,1.8,2469.945,13.33,0.0,0.0
2019-09-01T03:35:14,42.805,6.029,-0.01,0.03,-0.051,100.0,108.0,99.0,13.4,1505.3,328.5,-0.7,1.9,2469.962,13.33,0.031,341.6
2019-09-01T03:38:15,42.805,6.029,-0.003,0.001,-0.019,100.0,108.0,99.0,13.4,1505.3,327.0,-0.7,1.8,2469.914,13.33,0.003,288.4
2019-09-01T03:41:16,42.805,6.029,0.006,0.013,-0.009,101.0,109.0,99.0,13.3,1505.3,326.2,-0.7,1.9,2469.93,13.33,0.014,24.8
2019-09-01T03:44:17,42.805,6.029,0.014,-0.006,-0.033,102.0,107.0,97.0,13.4,1505.3,324.2,-0.7,1.8,2469.936,13.33,0.015,113.2
2019-09-01T03:47:18,42.805,6.029,0.027,0.0,-0.034,100.0,109.0,99.0,13.4,1505.3,326.6,-0.7,1.8,2469.943,13.33,0.026,90.0
2019-09-01T03:50:19,42.805,6.029,0.006,0.0,-0.03,101.0,109.0,98.0,13.4,1505.3,324.6,-0.8,1.8,2469.938,13.33,0.006,90.0
2019-09-01T03:53:20,42.805,6.029,0.029,-0.007,0.007,102.0,108.0,98.0,13.3,1505.3,327.3,-0.7,1.8,2469.946,13.33,0.029,103.6
2019-09-01T03:56:21,42.805,6.029,0.012,0.019,0.0,102.0,108.0,98.0,13.3,1505.4,324.3,-0.7,1.8,2469.945,13.34,0.022,32.3
2019-09-01T03:59:22,42.805,6.029,0.013,0.012,-0.002,101.0,109.0,97.0,13.4,1505.4,327.0,-0.7,1.8,2469.979,13.34,0.017,47.3
2019-09-01T04:02:23,42.805,6.029,0.025,0.019,-0.023,101.0,108.0,98.0,13.3,1505.4,324.6,-0.7,1.8,2469.936,13.34,0.031,52.8
2019-09-01T04:05:24,42.805,6.029,0.02,0.019,0.004,100.0,110.0,98.0,13.3,1505.3,327.7,-0.7,1.9,2469.93,13.33,0.027,46.5
2019-09-01T04:08:25,42.805,6.029,0.019,0.025,0.032,101.0,108.0,99.0,13.3,1505.3,327.3,-0.7,1.8,2469.929,13.33,0.031,37.2
2019-09-01T04:11:26,42.805,6.029,0.0,-0.011,0.011,101.0,108.0,99.0,13.4,1505.4,324.6,-0.7,1.8,2469.982,13.34,0.011,180.0
2019-09-01T04:14:27,42.805,6.029,0.001,0.01,-0.036,102.0,109.0,97.0,13.3,1505.4,325.1,-0.7,1.8,2469.964,13.34,0.01,5.7
2019-09-01T04:17:28,42.805,6.029,-0.001,0.017,-0.016,103.0,107.0,98.0,13.4,1505.4,326.1,-0.7,1.8,2469.953,13.34,0.017,356.6
2019-09-01T04:20:29,42.805,6.029,0.002,0.004,0.002,100.0,108.0,99.0,13.4,1505.4,326.7,-0.7,1.8,2469.929,13.34,0.004,26.6
2019-09-01T04:23:30,42.805,6.029,-0.009,-0.002,-0.006,103.0,108.0,99.0,13.3,1505.4,324.6,-0.7,1.8,2469.969,13.34,0.009,257.5
2019-09-01T04:26:31,42.805,6.029,0.013,0.01,-0.015,102.0,109.0,98.0,13.3,1505.4,323.7,-0.7,1.8,2469.969,13.34,0.016,52.4
2019-09-01T04:29:32,42.805,6.029,0.024,0.026,0.012,101.0,109.0,99.0,13.4,1505.4,323.6,-0.7,1.8,2469.936,13.34,0.035,42.7
2019-09-01T04:32:33,42.805,6.029,0.0,0.001,-0.013,102.0,108.0,98.0,13.3,1505.4,323.2,-0.7,1.8,2469.931,13.34,0.001,0.0
2019-09-01T04:35:34,42.805,6.029,-0.01,0.025,-0.046,101.0,107.0,99.0,13.4,1505.4,323.7,-0.7,1.8,2469.951,13.34,0.026,338.2
2019-09-01T04:38:35,42.805,6.029,-0.008,0.038,-0.014,100.0,109.0,99.0,13.4,1505.4,326.5,-0.7,1.8,2469.935,13.34,0.038,348.1
2019-09-01T04:41:36,42.805,6.029,-0.022,0.006,-0.033,102.0,109.0,97.0,13.4,1505.4,327.5,-0.7,1.8,2469.96,13.34,0.022,285.3
2019-09-01T04:44:37,42.805,6.029,0.011,0.018,-0.031,101.0,109.0,98.0,13.3,1505.4,326.0,-0.7,1.8,2469.938,13.35,0.021,31.4
2019-09-01T04:47:38,42.805,6.029,0.003,0.0,0.014,101.0,108.0,100.0,13.3,1505.4,324.8,-0.7,1.8,2469.982,13.34,0.003,90.0
2019-09-01T04:50:39,42.805,6.029,0.01,0.026,-0.037,101.0,107.0,99.0,13.4,1505.4,325.7,-0.7,1.8,2469.945,13.35,0.027,21.0
2019-09-01T04:53:40,42.805,6.029,-0.025,0.008,-0.051,101.0,109.0,98.0,13.4,1505.4,325.3,-0.7,1.9,2469.973,13.35,0.026,287.7
2019-09-01T04:56:41,42.805,6.029,0.0,-0.008,-0.029,101.0,110.0,99.0,13.4,1505.4,325.9,-0.7,1.8,2469.972,13.35,0.008,180.0
2019-09-01T04:59:42,42.805,6.029,0.003,0.008,0.022,101.0,109.0,97.0,13.4,1505.4,326.1,-0.7,1.8,2469.986,13.35,0.008,20.6
2019-09-01T05:02:43,42.805,6.029,0.009,0.013,0.005,101.0,108.0,98.0,13.4,1505.4,327.3,-0.7,1.8,2470.007,13.34,0.015,34.7
2019-09-01T05:05:44,42.805,6.029,0.009,0.029,0.004,101.0,107.0,98.0,13.4,1505.4,326.8,-0.7,1.8,2469.967,13.34,0.03,17.2
2019-09-01T05:08:45,42.805,6.029,0.022,0.017,-0.003,101.0,108.0,100.0,13.4,1505.4,324.2,-0.7,1.8,2469.992,13.35,0.027,52.3
2019-09-01T05:11:46,42.805,6.029,0.021,0.028,-0.035,101.0,108.0,100.0,13.3,1505.4,323.5,-0.7,1.8,2469.96,13.35,0.035,36.9
2019-09-01T05:14:47,42.805,6.029,-0.013,0.008,-0.068,101.0,109.0,98.0,13.3,1505.4,323.7,-0.7,1.8,2469.973,13.35,0.015,301.6
2019-09-01T05:17:48,42.805,6.029,0.007,0.026,-0.017,103.0,106.0,99.0,13.4,1505.4,323.2,-0.7,1.9,2469.936,13.35,0.026,15.1
2019-09-01T05:20:49,42.805,6.029,-0.002,0.0,-0.033,103.0,109.0,95.0,13.4,1505.4,324.3,-0.7,1.8,2470.028,13.35,0.002,270.0
2019-09-01T05:23:50,42.805,6.029,0.014,0.004,-0.025,101.0,108.0,99.0,13.4,1505.4,324.3,-0.7,1.8,2469.985,13.35,0.014,74.1
2019-09-01T05:26:51,42.805,6.029,0.0,-0.007,0.0,101.0,109.0,98.0,13.4,1505.4,328.3,-0.7,1.8,2470.044,13.34,0.007,180.0
2019-09-01T05:29:52,42.805,6.029,0.02,0.017,0.018,101.0,108.0,98.0,13.4,1505.4,325.2,-0.7,1.8,2470.019,13.34,0.026,49.6
2019-09-01T05:32:53,42.805,6.029,0.021,0.015,-0.014,102.0,110.0,97.0,13.4,1505.4,324.6,-0.7,1.8,2470.028,13.34,0.025,54.5
2019-09-01T05:35:54,42.805,6.029,-0.008,0.027,-0.022,100.0,109.0,98.0,13.4,1505.4,324.3,-0.8,1.8,2470.014,13.34,0.028,343.5
2019-09-01T05:38:55,42.805,6.029,0.02,-0.004,0.031,101.0,107.0,100.0,13.4,1505.4,325.7,-0.7,1.8,2470.017,13.34,0.02,101.3
2019-09-01T05:41:56,42.805,6.029,0.017,0.014,-0.014,101.0,109.0,97.0,13.4,1505.4,326.4,-0.7,1.8,2470.008,13.34,0.022,50.5
2019-09-01T05:44:57,42.805,6.029,-0.004,0.02,-0.016,100.0,108.0,98.0,13.4,1505.4,326.5,-0.7,1.8,2470.035,13.34,0.02,348.7
2019-09-01T05:47:58,42.805,6.029,0.034,0.016,0.0,101.0,108.0,98.0,13.4,1505.4,325.4,-0.7,1.8,2470.048,13.34,0.037,64.8
2019-09-01T05:50:59,42.805,6.029,-0.004,0.0,-0.001,102.0,108.0,98.0,13.3,1505.4,326.7,-0.7,1.8,2470.011,13.34,0.004,270.0
2019-09-01T05:54:00,42.805,6.029,0.017,0.021,0.012,99.0,111.0,98.0,13.3,1505.4,323.6,-0.7,1.8,2470.034,13.34,0.027,39.0
2019-09-01T05:57:01,42.805,6.029,-0.009,0.025,-0.016,100.0,108.0,97.0,13.4,1505.4,325.4,-0.7,1.9,2470.04,13.34,0.026,340.2
2019-09-01T06:00:02,42.805,6.029,-0.012,0.004,-0.012,100.0,109.0,97.0,13.4,1505.4,324.0,-0.7,1.8,2470.097,13.34,0.012,288.4
2019-09-01T06:03:03,42.805,6.029,0.011,0.006,0.001,102.0,107.0,99.0,13.3,1505.4,324.4,-0.7,1.9,2469.987,13.34,0.012,61.4
2019-09-01T06:06:04,42.805,6.029,0.028,0.008,0.005,101.0,108.0,98.0,13.4,1505.4,323.6,-0.7,1.8,2470.064,13.34,0.029,74.1
2019-09-01T06:09:05,42.805,6.029,0.008,0.0,0.014,100.0,110.0,99.0,13.3,1505.4,327.2,-0.7,1.8,2470.088,13.34,0.008,90.0
2019-09-01T06:12:06,42.805,6.029,-0.014,0.006,-0.025,101.0,109.0,97.0,13.4,1505.4,325.5,-0.7,1.8,2470.107,13.35,0.015,293.2
2019-09-01T06:15:07,42.805,6.029,0.003,0.0,-0.018,100.0,108.0,98.0,13.4,1505.4,322.9,-0.7,1.8,2470.082,13.35,0.003,90.0
2019-09-01T06:18:08,42.805,6.029,0.0,0.011,-0.035,101.0,107.0,99.0,13.3,1505.4,326.9,-0.7,1.8,2470.072,13.35,0.011,0.0
2019-09-01T06:21:09,42.805,6.029,-0.026,0.014,-0.028,102.0,109.0,99.0,13.3,1505.4,326.9,-0.8,1.8,2470.04,13.35,0.029,298.3
2019-09-01T06:24:10,42.805,6.029,-0.001,0.005,-0.02,102.0,108.0,101.0,13.4,1505.4,324.5,-0.7,1.8,2470.09,13.35,0.005,348.7
2019-09-01T06:27:11,42.805,6.029,-0.012,0.004,0.0,100.0,107.0,100.0,13.4,1505.4,327.4,-0.7,1.8,2470.028,13.35,0.012,288.4
2019-09-01T06:30:12,42.805,6.029,-0.017,0.017,-0.013,101.0,107.0,99.0,13.3,1505.4,323.8,-0.7,1.9,2470.047,13.35,0.024,315.0
2019-09-01T06:33:13,42.805,6.029,-0.001,0.033,-0.026,102.0,107.0,98.0,13.4,1505.4,327.5,-0.7,1.9,2470.064,13.35,0.033,358.3
2019-09-01T06:36:14,42.805,6.029,-0.01,0.015,-0.006,100.0,108.0,97.0,13.3,1505.4,326.4,-0.7,1.8,2470.105,13.35,0.018,326.3
2019-09-01T06:39:15,42.805,6.029,0.0,0.021,-0.034,101.0,108.0,98.0,13.4,1505.4,326.6,-0.7,1.9,2470.073,13.35,0.021,0.0
2019-09-01T06:42:16,42.805,6.029,0.02,0.022,-0.046,103.0,108.0,97.0,13.4,1505.4,326.9,-0.7,1.8,2470.03,13.34,0.029,42.3
2019-09-01T06:45:17,42.805,6.029,-0.015,0.006,-0.007,101.0,107.0,98.0,13.4,1505.4,324.1,-0.7,1.8,2470.071,13.35,0.016,291.8
2019-09-01T06:48:18,42.805,6.029,0.018,0.015,-0.03,100.0,108.0,97.0,13.3,1505.4,327.8,-0.7,1.8,2470.125,13.35,0.023,50.2
2019-09-01T06:51:19,42.805,6.029,-0.016,0.031,-0.01,99.0,109.0,99.0,13.3,1505.4,326.9,-0.7,1.8,2470.088,13.35,0.034,332.7
2019-09-01T06:54:20,42.805,6.029,-0.021,0.038,-0.043,102.0,109.0,98.0,13.4,1505.4,328.4,-0.7,1.8,2470.124,13.34,0.043,331.1
2019-09-01T06:57:21,42.805,6.029,-0.018,0.028,-0.017,101.0,109.0,99.0,13.3,1505.4,324.8,-0.7,1.8,2470.083,13.34,0.033,327.3
2019-09-01T07:00:22,42.805,6.029,-0.029,0.022,-0.026,101.0,107.0,99.0,13.3,1505.4,326.3,-0.7,1.8,2470.076,13.34,0.036,307.2
2019-09-01T07:03:23,42.805,6.029,-0.005,0.014,-0.019,101.0,111.0,97.0,13.4,1505.4,326.6,-0.7,1.8,2470.102,13.34,0.014,340.4
2019-09-01T07:06:24,42.805,6.029,0.008,0.0,-0.011,101.0,108.0,98.0,13.4,1505.4,324.8,-0.7,1.8,2470.109,13.34,0.008,90.0
2019-09-01T07:09:25,42.805,6.029,0.009,0.028,-0.018,101.0,109.0,97.0,13.4,1505.4,327.0,-0.7,1.8,2470.117,13.34,0.029,17.8
2019-09-01T07:12:26,42.805,6.029,-0.011,0.021,-0.033,102.0,108.0,97.0,13.3,1505.4,326.3,-0.7,1.8,2470.078,13.34,0.023,332.4
2019-09-01T07:15:27,42.805,6.029,-0.008,0.012,-0.005,101.0,108.0,98.0,13.4,1505.4,326.6,-0.7,1.8,2470.094,13.34,0.014,326.3
2019-09-01T07:18:28,42.805,6.029,-0.02,-0.004,-0.032,101.0,109.0,98.0,13.4,1505.4,324.9,-0.7,1.8,2470.123,13.34,0.02,258.7
2019-09-01T07:21:29,42.805,6.029,-0.031,0.008,0.004,102.0,108.0,98.0,13.4,1505.4,327.3,-0.7,1.8,2470.125,13.34,0.032,284.5
2019-09-01T07:24:30,42.805,6.029,-0.029,0.003,-0.019,101.0,109.0,99.0,13.3,1505.4,323.4,-0.7,1.8,2470.145,13.34,0.029,275.9
2019-09-01T07:27:31,42.805,6.029,-0.011,0.005,-0.002,102.0,107.0,98.0,13.3,1505.4,326.1,-0.8,1.8,2470.107,13.34,0.012,294.4
2019-09-01T07:30:32,42.805,6.029,-0.003,0.006,0.001,102.0,107.0,99.0,13.3,1505.4,326.9,-0.7,1.8,2470.118,13.34,0.006,333.4
2019-09-01T07:33:33,42.805,6.029,-0.022,-0.011,-0.022,101.0,107.0,99.0,13.4,1505.4,323.5,-0.7,1.8,2470.083,13.35,0.024,243.4
2019-09-01T07:36:34,42.805,6.029,-0.014,0.013,-0.029,101.0,109.0,99.0,13.4,1505.4,325.0,-0.7,1.9,2470.127,13.35,0.019,312.9
2019-09-01T07:39:35,42.805,6.029,-0.016,0.0,-0.036,101.0,108.0,101.0,13.4,1505.4,326.2,-0.7,1.8,2470.117,13.35,0.016,270.0
2019-09-01T07:42:36,42.805,6.029,-0.008,0.025,-0.035,101.0,108.0,98.0,13.3,1505.4,326.0,-0.7,1.8,2470.101,13.35,0.026,342.3
2019-09-01T07:45:37,42.805,6.029,-0.025,0.006,-0.061,102.0,107.0,98.0,13.4,1505.4,327.9,-0.7,1.9,2470.121,13.35,0.025,283.5
2019-09-01T07:48:38,42.805,6.029,0.005,0.026,0.001,102.0,107.0,98.0,13.3,1505.4,325.5,-0.7,1.8,2470.076,13.35,0.026,10.9
2019-09-01T07:51:39,42.805,6.029,-0.005,0.005,-0.01,102.0,108.0,99.0,13.4,1505.4,325.3,-0.7,1.8,2470.169,13.34,0.007,315.0
2019-09-01T07:54:40,42.805,6.029,0.002,0.004,-0.015,103.0,107.0,98.0,13.3,1505.4,325.6,-0.7,1.9,2470.073,13.34,0.004,26.6
2019-09-01T07:57:41,42.805,6.029,-0.021,0.017,-0.018,101.0,108.0,98.0,13.4,1505.4,326.9,-0.7,1.9,2470.146,13.34,0.027,309.0
2019-09-01T08:00:42,42.805,6.029,-0.006,0.006,-0.019,100.0,109.0,98.0,13.4,1505.4,325.0,-0.7,1.8,2470.149,13.34,0.008,315.0
2019-09-01T08:03:43,42.805,6.029,-0.021,0.013,-0.008,100.0,108.0,99.0,13.4,1505.4,324.0,-0.7,1.8,2470.168,13.34,0.024,301.8
2019-09-01T08:06:44,42.805,6.029,-0.015,0.006,-0.034,101.0,108.0,102.0,13.3,1505.4,323.3,-0.7,1.9,2470.159,13.34,0.016,291.8
2019-09-01T08:09:45,42.805,6.029,-0.018,0.008,-0.017,100.0,109.0,97.0,13.4,1505.4,328.5,-0.7,1.8,2470.115,13.34,0.019,294.0
2019-09-01T08:12:46,42.805,6.029,0.016,0.004,-0.024,101.0,107.0,100.0,13.4,1505.4,324.5,-0.7,1.8,2470.105,13.34,0.016,76.0
2019-09-01T08:15:47,42.805,6.029,0.001,0.02,-0.013,102.0,109.0,97.0,13.4,1505.4,326.4,-0.7,1.8,2470.111,13.34,0.02,2.9
2019-09-01T08:18:48,42.805,6.029,0.001,0.017,0.001,101.0,108.0,97.0,13.3,1505.4,323.7,-0.7,1.8,2470.122,13.34,0.017,3.4
2019-09-01T08:21:49,42.805,6.029,-0.021,0.008,-0.031,101.0,109.0,98.0,13.4,1505.4,327.7,-0.7,1.8,2470.113,13.34,0.022,290.9
2019-09-01T08:24:50,42.805,6.029,-0.026,0.02,-0.017,101.0,107.0,98.0,13.4,1505.4,327.0,-0.7,1.8,2470.12,13.34,0.032,307.6
2019-09-01T08:27:51,42.805,6.029,-0.017,0.006,-0.035,102.0,108.0,98.0,13.3,1505.4,327.7,-0.7,1.9,2470.134,13.34,0.018,289.4
2019-09-01T08:30:52,42.805,6.029,0.006,0.017,-0.018,101.0,110.0,97.0,13.4,1505.4,324.6,-0.7,1.8,2470.188,13.34,0.018,19.4
2019-09-01T08:33:53,42.805,6.029,-0.011,0.034,-0.049,101.0,108.0,98.0,13.4,1505.4,324.2,-0.7,1.8,2470.099,13.34,0.035,342.1
2019-09-01T08:36:54,42.805,6.029,-0.019,0.015,-0.047,102.0,107.0,99.0,13.4,1505.4,326.5,-0.7,1.8,2470.112,13.34,0.024,308.3
2019-09-01T08:39:55,42.805,6.029,-0.005,0.0,-0.007,101.0,108.0,98.0,13.3,1505.4,324.8,-0.7,1.9,2470.123,13.34,0.005,270.0
2019-09-01T08:42:56,42.805,6.029,0.0,0.02,-0.011,101.0,108.0,98.0,13.4,1505.4,324.5,-0.7,1.8,2470.145,13.34,0.02,0.0
2019-09-01T08:45:57,42.805,6.029,0.0,0.001,-0.047,101.0,108.0,100.0,13.3,1505.4,325.9,-0.7,1.8,2470.134,13.34,0.001,0.0
2019-09-01T08:48:58,42.805,6.029,-0.018,0.009,-0.008,103.0,107.0,98.0,13.4,1505.4,327.1,-0.7,1.9,2470.12,13.34,0.02,296.6
2019-09-01T08:51:59,42.805,6.029,-0.007,0.018,-0.008,100.0,108.0,99.0,13.4,1505.4,327.1,-0.7,1.8,2470.163,13.34,0.019,338.8
2019-09-01T08:55:00,42.805,6.029,-0.021,0.017,-0.039,102.0,109.0,98.0,13.3,1505.4,326.0,-0.7,1.8,2470.119,13.34,0.027,309.0
2019-09-01T08:58:01,42.805,6.029,0.0,0.026,-0.008,102.0,109.0,98.0,13.4,1505.4,323.7,-0.7,1.8,2470.148,13.34,0.026,0.0
2019-09-01T09:01:02,42.805,6.029,-0.015,0.021,-0.02,101.0,108.0,99.0,13.4,1505.4,323.3,-0.7,1.8,2470.126,13.34,0.025,324.5
2019-09-01T09:04:03,42.805,6.029,-0.005,-0.009,-0.047,101.0,108.0,98.0,13.3,1505.4,327.2,-0.7,1.8,2470.123,13.34,0.01,209.1
2019-09-01T09:07:04,42.805,6.029,-0.007,0.025,0.003,102.0,108.0,99.0,13.3,1505.4,326.1,-0.7,1.9,2470.118,13.34,0.025,344.4
2019-09-01T09:10:05,42.805,6.029,-0.007,0.013,-0.004,101.0,107.0,98.0,13.3,1505.4,327.0,-0.7,1.8,2470.122,13.34,0.014,331.7
2019-09-01T09:13:06,42.805,6.029,-0.007,0.012,-0.008,100.0,108.0,98.0,13.4,1505.4,327.6,-0.7,1.8,2470.123,13.34,0.013,329.7
2019-09-01T09:16:07,42.805,6.029,-0.01,-0.003,-0.025,101.0,108.0,100.0,13.4,1505.4,324.8,-0.7,1.8,2470.134,13.34,0.01,253.3
2019-09-01T09:19:08,42.805,6.029,-0.013,0.017,-0.044,101.0,110.0,98.0,13.4,1505.4,323.6,-0.7,1.8,2470.115,13.34,0.021,322.6
2019-09-01T09:22:09,42.805,6.029,0.007,0.019,-0.002,101.0,108.0,99.0,13.3,1505.4,324.8,-0.7,1.8,2470.111,13.34,0.02,20.2
2019-09-01T09:25:10,42.805,6.029,0.016,0.011,-0.021,100.0,108.0,98.0,13.4,1505.4,326.5,-0.7,1.8,2470.126,13.34,0.019,55.5
2019-09-01T09:28:11,42.805,6.029,0.009,0.004,-0.008,100.0,108.0,98.0,13.4,1505.4,325.9,-0.7,1.9,2470.131,13.34,0.009,66.0
2019-09-01T09:31:12,42.805,6.029,0.003,0.022,-0.008,102.0,107.0,98.0,13.4,1505.4,327.1,-0.7,1.8,2470.108,13.34,0.022,7.8
2019-09-01T09:34:13,42.805,6.029,-0.011,0.009,-0.053,100.0,109.0,98.0,13.4,1505.4,327.4,-0.7,1.8,2470.146,13.34,0.014,309.3
2019-09-01T09:37:14,42.805,6.029,-0.024,0.024,-0.027,101.0,107.0,98.0,13.3,1505.4,327.6,-0.7,1.8,2470.116,13.34,0.033,315.0
2019-09-01T09:40:15,42.805,6.029,-0.028,0.011,-0.036,101.0,109.0,98.0,13.3,1505.4,325.2,-0.7,1.9,2470.121,13.34,0.03,291.4